If you wish to contribute or participate in the discussions about articles you are invited to join SKYbrary as a registered user

 Actions

Presidente Castro Pinto International Airport

From SKYbrary Wiki

SBJP
Airport
ICAO: SBJP – IATA: JPA
Summary
Name Presidente Castro Pinto International Airport
Region South America and Caribbean
Territory Brazil BR.gif
Location Bayeux, Paraiba
Serving João Pessoa
Elevation 65.532 m
215 ft65.532 m
Coordinates 7° 8' 44.99" S, 34° 56' 55.00" W
Runways
Designator Length Width Surface ROPS
16/34 2515 m8,251.312 ft
45 m147.638 ft
ASP yes/yes


METAR
Observation SBJP 261900Z 12008KT 9999 FEW020 SCT070 26/21 Q1015
Station Joao Pessoa
Date/Time 26 June 2019 19:00:00
Wind direction 120°
Wind speed 08 kts
Lowest cloud amount few clouds
Temperature 26°C
Dew point 21°C
Humidity 74%
QNH 1015 hPa
Weather condition n/a

Presidente Castro Pinto International Airport is the airport serving João Pessoa, Brazil located in the adjoining municipality of Bayeux.

Climatology

Tropical monsoon climate (Köppen climate classification Am)

Maps

Terrain

Loading map...

Airport Layout

Loading map...


Accidents & Serious Incidents at or in vicinity of SBJP

None on SKYbrary